This is the latest recevied weather packets stored in our database for station/object XE2G-31. If no packets are shown the sender has not sent any weather packets the latest 10 day(s).
| Time | Temp. | Humidity | Pressure | Rain* | Wind** | Luminosity | Snow |
|---|---|---|---|---|---|---|---|
| 1777500079 | 31.67° C | 50% | 868 hPa | - | - | - | - |
| 1777499132 | 32.22° C | 49% | 869 hPa | - | - | - | - |
| 1777498185 | 32.78° C | 48% | 869 hPa | - | - | - | - |
| 1777497239 | 32.78° C | 47% | 869 hPa | - | - | - | - |
| 1777496291 | 32.78° C | 48% | 869 hPa | - | - | - | - |
| 1777495344 | 33.33° C | 47% | 869 hPa | - | - | - | - |
| 1777494398 | 32.78° C | 48% | 869 hPa | - | - | - | - |
| 1777493451 | 31.67° C | 47% | 870 hPa | - | - | - | - |
| 1777492504 | 31.11° C | 48% | 870 hPa | - | - | - | - |
| 1777491557 | 31.67° C | 48% | 870 hPa | - | - | - | - |
| 1777490610 | 34.44° C | 45% | 870 hPa | - | - | - | - |
| 1777488717 | 33.89° C | 45% | 870 hPa | - | - | - | - |
| 1777487770 | 32.22° C | 45% | 870 hPa | - | - | - | - |
| 1777486823 | 33.33° C | 43% | 871 hPa | - | - | - | - |
| 1777485876 | 33.33° C | 34% | 871 hPa | - | - | - | - |
| 1777484929 | 33.33° C | 34% | 871 hPa | - | - | - | - |
| 1777483983 | 33.33° C | 16% | 871 hPa | - | - | - | - |
| 1777483036 | 32.78° C | 15% | 871 hPa | - | - | - | - |
| 1777482089 | 32.22° C | 16% | 871 hPa | - | - | - | - |
| 1777481142 | 31.67° C | 16% | 871 hPa | - | - | - | - |
| 1777480195 | 31.11° C | 21% | 871 hPa | - | - | - | - |
| 1777479248 | 28.89° C | 20% | 871 hPa | - | - | - | - |
| 1777478302 | 28.33° C | 22% | 871 hPa | - | - | - | - |
| 1777477355 | 27.78° C | 21% | 871 hPa | - | - | - | - |
| 1777476408 | 26.67° C | 25% | 871 hPa | - | - | - | - |
* Rain since midnight (hover to see other rain measurements)
** Current wind speed in m/s (hover to see current wind gust speed)